This is the latest recevied weather packets stored in our database for station/object WX8ASH-13. If no packets are shown the sender has not sent any weather packets the latest 10 day(s).
| Time | Temp. | Humidity | Pressure | Rain* | Wind** | Luminosity | Snow |
|---|---|---|---|---|---|---|---|
| 1777920631 | 22.22° C | 54% | 1007.1 hPa | 0 mm | - | - | - |
| 1777920331 | 22.78° C | 53% | 1007.2 hPa | 0 mm | - | - | - |
| 1777920031 | 22.78° C | 52% | 1007.6 hPa | 0 mm | - | - | - |
| 1777919730 | 22.78° C | 54% | 1007.7 hPa | 0 mm | - | - | - |
| 1777919431 | 22.78° C | 53% | 1007.7 hPa | 0 mm | - | - | - |
| 1777919130 | 22.22° C | 55% | 1007.7 hPa | 0 mm | - | - | - |
| 1777918831 | 22.22° C | 56% | 1007.8 hPa | 0 mm | - | - | - |
| 1777918531 | 22.22° C | 54% | 1007.8 hPa | 0 mm | - | - | - |
| 1777918231 | 21.67° C | 56% | 1007.7 hPa | 0 mm | - | - | - |
| 1777917930 | 21.67° C | 56% | 1007.7 hPa | 0 mm | - | - | - |
| 1777917629 | 21.67° C | 55% | 1007.8 hPa | 0 mm | - | - | - |
| 1777917330 | 21.67° C | 54% | 1007.8 hPa | 0 mm | - | - | - |
| 1777917029 | 21.67° C | 55% | 1007.9 hPa | 0 mm | - | - | - |
| 1777916729 | 21.11° C | 57% | 1008 hPa | 0 mm | - | - | - |
| 1777916428 | 21.11° C | 56% | 1008 hPa | 0 mm | - | - | - |
| 1777916128 | 21.67° C | 55% | 1008 hPa | 0 mm | - | - | - |
| 1777915828 | 21.67° C | 55% | 1008.1 hPa | 0 mm | - | - | - |
| 1777915528 | 21.11° C | 55% | 1008.1 hPa | 0 mm | - | - | - |
| 1777915228 | 21.11° C | 55% | 1008.1 hPa | 0 mm | - | - | - |
| 1777914928 | 21.11° C | 56% | 1008.2 hPa | 0 mm | - | - | - |
| 1777914628 | 20.56° C | 56% | 1008.2 hPa | 0 mm | - | - | - |
| 1777914328 | 20.56° C | 55% | 1008.3 hPa | 0 mm | - | - | - |
| 1777914028 | 20.56° C | 58% | 1008.4 hPa | 0 mm | - | - | - |
| 1777913728 | 20° C | 55% | 1008.5 hPa | 0 mm | - | - | - |
| 1777913427 | 20° C | 56% | 1008.5 hPa | 0 mm | - | - | - |
* Rain latest hour (hover to see other rain measurements)
** Current wind speed in m/s (hover to see current wind gust speed)